Location: Ferchesar
(52.6477°N, 12.4298°E)
Time: 02:58:30
(UTC+01:00)

Vanguard 3 - Pass Details

Date: 12 December 2021
Orbit: 508 x 3260 km, 33.3° (Epoch: 21 January)

Event Time Altitude Azimuth Distance (km) Brightness Sun altitude
Rises 23:45:15 0° 193° (SSW) 5,820 - -60.2°
Reaches altitude 10° 23:50:19 10° 178° (S) 5,249 - -60.3°
Maximum altitude 00:00:40 20° 138° (SE) 5,045 - -60.4°
Exits shadow 00:10:59 12° 104° (ESE) 5,982 11.4 -60.4°
Drops below altitude 10° 00:12:38 10° 100° (E) 6,199 11.5 -60.4°
Sets 00:19:23 0° 87° (E) 7,183 12.0 -60.3°
